Regional Weather Roundup
Issued by NWS Northern Indiana

Home | Current Version | Previous Version | Graphics & Text | Print | Product List | Glossary On
Versions: 1 2 3 4 5 6 7 8 9 10 11 12 13 14 15 16 17 18 19 20 21 22 23 24 25 26 27 28 29 30 31 32 33 34 35 36 37 38 39 40 41 42 43 44 45 46 47 48 49 50
000
ASUS43 KIWX 221101
RWRIWX

KIWX WEATHER ROUNDUP
NATIONAL WEATHER SERVICE NORTHERN INDIANA
700 AM EDT TUE AUG 22 2017

NOTE: "FAIR" INDICATES FEW OR NO CLOUDS BELOW 12,000 FEET WITH NO
SIGNIFICANT WEATHER AND/OR OBSTRUCTIONS TO VISIBILITY.

* THESE STATIONS ARE NOT UNDER NWS QUALITY CONTROL. THEY ALSO MAY NOT
  REPORT WEATHER SUCH AS PRECIPITATION OR FOG.

INZ001>027-221200-
NORTHERN INDIANA

CITY           SKY/WX    TMP DP  RH WIND       PRES   REMARKS
MICHIGAN CITY* RAIN      68  68 100 SW7       29.88F
SOUTH BEND     LGT RAIN  69  69 100 SW12      29.89S
ELKHART*       RAIN      70  68  94 SW17      29.90
GOSHEN         LGT RAIN  70  66  87 SW18G24   29.90F
MONTICELLO*    RAIN      68  66  95 W12       29.95R
FORT WAYNE     LGT RAIN  70  68  93 SW7       29.91F
PERU/GRISSOM   HVY RAIN  68  68 100 W9        29.94R FOG

$$
INZ028>050-221200-
CENTRAL INDIANA

CITY           SKY/WX    TMP DP  RH WIND       PRES   REMARKS
LAFAYETTE      LGT RAIN  67  67 100 VRB3      29.93F FOG
KOKOMO*        LGT RAIN  70  68  93 W14       29.96R
MUNCIE*        MOCLDY    76  69  79 W8        29.94S
INDIANAPOLIS   CLOUDY    74  71  91 SW10      29.93S

$$
MIZ043>046-050>051-056>058-064>065-071>073-077>080-221200-
SOUTHWEST LOWER MICHIGAN

CITY           SKY/WX    TMP DP  RH WIND       PRES   REMARKS
BATTLE CREEK   LGT RAIN  69  67  93 SW17G26   29.86F
BENTON HARBOR  LGT RAIN  73  69  87 SW18G25   29.85S
COLDWATER*     LGT RAIN  70  67  92 SW10G21   29.88S
HILLSDALE*     CLOUDY    70  64  83 SW7       29.88S
HOLLAND        CLOUDY    73  69  87 SW16G26   29.81F
GRAND RAPIDS   LGT RAIN  71  70  96 SW14G23   29.80S
KALAMAZOO      LGT RAIN  70  66  87 SW15G24   29.85F
STURGIS*       LGT RAIN  69  67  95 SW13G21   29.88S
THREE RIVERS*  LGT RAIN  70  68  93 SW10G16   29.88S

$$
OHZ001>008-015>018-024>025-221200-
NORTHWEST OHIO

CITY           SKY/WX    TMP DP  RH WIND       PRES   REMARKS
DEFIANCE       LGT RAIN  71  69  93 SW5       29.89F
FINDLAY        MOCLDY    75  67  76 W12       29.91S
TOLEDO EXPRESS LGT RAIN  72  71  97 SW10      29.88F
TOLEDO METCALF CLOUDY    74  70  87 S10       29.89F
LIMA           CLOUDY    74  69  85 MISG      29.93S

$$
AND FOR LAKE MICHIGAN COASTAL AND OPEN LAKE BUOY OBSERVATIONS

STATION/POSITION TEMP    WIND        PRES    VSBY  WAVE
                 AIR SEA DIR/SP/G                  HT/PER
                 (F)     (DEG/KT/KT) (MB)    (MI)  (FT/S)
CALUMET HARBOR    71     220/  4/  9 1010.6F
MICHIGAN CITY     72     220/ 19/ 21   N/A
BURNS HARBOR      72     230/ 13/ 17 1012.2F
SAINT JOSEPH      74     220/ 23/ 30 1011.5
SOUTH LAKE BUOY   73 72  250/ 16/ 21 1009.1          4/ 6
4 MI NW BRIDGMAN  73 73  250/ 19/ 25 1010.9S         5/ 5
MICHIGAN CITY     73 74  240/ 16/ 21   N/A           4/ 4

$$
&&




USA.gov is the U.S. government's official web portal to all federal, state and local government web resources and services.